Location: Unspecified
(0.0000°N, 0.0000°E)
Time: 08:26:45
(UTC+00:00)

Envisat - Pass Details

Date: 23 February 2018
Orbit: 764 x 766 km, 98.2° (Epoch: 23 February)

Event Time Altitude Azimuth Distance (km) Brightness Sun altitude
Rises 20:45:34 0° 194° (SSW) 3,230 6.5 -37.4°
Reaches altitude 10° 20:48:22 10° 209° (SSW) 2,302 5.8 -38.1°
Maximum altitude 20:52:08 21° 258° (WSW) 1,653 5.2 -39.0°
Enters shadow 20:53:19 20° 277° (W) 1,727 5.3 -39.3°
Exits shadow 20:55:27 12° 302° (WNW) 2,162 5.7 -39.9°
Drops below altitude 10° 20:55:55 10° 306° (NW) 2,294 5.8 -40.0°
Sets 20:58:43 0° 322° (NW) 3,216 6.5 -40.6°
